User: anonymous   Login
Location: Unspecified
(40.7945°N, 111.1337°W)
Time: 07:09:29
(UTC-06:00)
Language:

Okean 3 - Orbit

View from above orbital plane
View from above orbital plane
View from above satellite
View from above satellite

Ground track
Ground track

The orbit data is extracted from the following two-line orbital elements,

1 21397U 91039A   19295.90249171  .00000202  00000-0  16958-4 0  9990
2 21397  82.5243  43.4272 0016471 245.7036 114.2464 14.92847116537736
Epoch (UTC): 22 October 2019 21:39:35
Eccentricity: 0.0016471
inclination: 82.5243°
perigee height: 577 km
apogee height: 600 km
right ascension of ascending node: 43.4272°
argument of perigee: 245.7036°
revolutions per day: 14.92847116
mean anomaly at epoch: 114.2464°
orbit number at epoch: 53773

The dashed part of the orbit path shows where the satellite is in the earth's shadow,  

DLR